DECAYED

STARLINK-1676, 46556 (Decayed)

Orbit data source: Space-Track

STARLINK-1676, 46556 was a payload satellite owned by SpaceX/Seattle (US) in LEO that was launched on Tue, 06 Oct 2020 UTC via an FALCON 9 launch vehicle from the Air Force Eastern Test Range (AFETR). Payload-class satellites include a variety of spacecraft equipped with specific instruments for various scientific and technological missions. These include communications satellites like Starlink; space stations such as the ISS; scientific satellites like the Hubble; Earth observation satellites from companies like Planet Labs, Umbra, and HawkEye 360; GPS; miniature CubeSats for education and research; and military/defense satellites.

Not visible in the next 10 days
Identifier
46556, 2020-070AA
Orbit
Decayed
Country
Flag of USUS
Related business
Manufacturer
SpaceX/Seattle
Mission
Decayed Commercial Communications
Bus & Motor
STARLINK, Unknown motor
Mass
260 kg wet, ~248 kg dry
Launch date (UTC)
2020-10-06 (6 years ago)
Launch vehicle
FALCON 9
Launch site
Air Force Eastern Test Range (AFETR)
Object type
Payload
Rocket body
Debris
Shape & HBR
Box + 1 Pan, 10.1 m
Radar Cross Section
13.562 m², Large (>1 m²)

Expand to show TLE details & history
Last TLE update: 3 weeks ago

TLE from 3 weeks ago
0 STARLINK-1676
1 46556U 20070AA  26244.61991082  .08582462  12425-4  72876-3 0  9995
2 46556  53.0133 350.1597 0009788 309.6354  50.3827 16.38550848327651
Epoch: 2026-09-01T14:52Z
TLE epoch observation values (Epoch: 2026-09-01T14:52:40.294Z)
Latitude
-0.00004°
Longitude
146.2076°
Altitude
166.502 km
Speed
7.81 km/s
True Right ascension
23h 20m 38s
True Declination
0° 00' 00"
Sunlit
Object was in full shadow at epoch
Visualization orbit readout
Latitude
Unknown
Longitude
Unknown
Altitude
Unknown
Speed
Unknown
Apparent Right ascension
Unknown
Apparent Declination
Unknown
Sunlit
N/A
Visualization observer readout
Local Sidereal Time
19:52:24
Azimuth
Unknown
Elevation
Unknown
Doppler factor
Unknown
Orbital elements
Apogee altitude
176.362 km
Perigee altitude
163.544 km
Semi-major axis
6,548.09 km
Eccentricity
0.00098
Inclination
53.0133°
RAAN
350.1597°
Arg. of periapsis
309.6354°
True anomaly
50.46917°
Mean anomaly
50.3827°
Eccentric anomaly
50.42593°
Mean motion
4.09611 °/min
Orbital period
87.89 mins
BSTAR
0.00072876
Loading maneuver chart data...
Computing Atmospheric mass density...

Documentation

Showing up to 5 results
|